Corsicana, TX

5:34 AM CST on February 08, 2016 (GMT -0600)
Campbell-Corsicana Municipal

Weather History for KCRS - September, 2013

Change the Weather History Date:

Wednesday, September 18, 2013

  Actual Average (KACT) Record (KACT)
Temperature  
Mean Temperature 86 °F 77 °F  
Max Temperature 98 °F 89 °F 100 °F (1977)
Min Temperature 75 °F 66 °F 47 °F (1981)
Degree Days  
Heating Degree Days 0 0  
Month to date heating degree days 0  
Since 1 July heating degree days 0  
Cooling Degree Days 22 12  
Month to date cooling degree days 272  
Year to date cooling degree days 2467  
Growing Degree Days 36 (Base 50)    
Moisture  
Dew Point 65 °F    
Average Humidity 50    
Maximum Humidity 74    
Minimum Humidity 26    
Precipitation  
Precipitation 0.00 in 0.10 in 2.13 in (2011)
Month to date precipitation 1.82  
Year to date precipitation 23.98  
Sea Level Pressure  
Sea Level Pressure 29.96 in    
Wind  
Wind Speed 7 mph (SSE)    
Max Wind Speed 15 mph    
Max Gust Speed 21 mph    
Visibility 10 miles    
Events      
T = Trace of Precipitation, MM = Missing Value Source: NWS Daily Summary

Daily Weather History Graph

Daily Weather History Graph

Search for Another Location

Airport or City:

Trip Planner

Search our weather history database for the weather conditions in past years. The results will help you decide how hot, cold, wet, or windy it might be!

Date:

Astronomy

Sep. 18, 2013 Rise Set
Actual Time 7:11 AM CDT 7:27 PM CDT
Civil Twilight 6:47 AM CDT 7:51 PM CDT
Nautical Twilight 6:18 AM CDT 8:20 PM CDT
Astronomical Twilight 5:49 AM CDT 8:48 PM CDT
Moon 6:52 PM CDT (9/18) 6:16 AM CDT (9/18)
Length of Visible Light 13h 04m
Length of Day
12h 15m
Waxing Gibbous, 99% of the Moon is Illuminated
Sep 18
Waxing Gibbous
Sep 19
Full
Sep 26
Last Quarter
Oct 4
New
Oct 11
First Quarter

Hourly Weather History & Observations

Time (CDT) Temp. Heat Index Dew Point Humidity Pressure Visibility Wind Dir Wind Speed Gust Speed Precip Events Conditions
12:53 AM 84.0 °F 85.8 °F 64.9 °F 53% 29.99 in 10.0 mi South 6.9 mph - N/A   Clear
1:53 AM 82.0 °F 83.8 °F 64.9 °F 56% 29.99 in 10.0 mi South 4.6 mph - N/A   Clear
2:53 AM 80.1 °F 81.9 °F 64.9 °F 60% 29.99 in 10.0 mi South 4.6 mph - N/A   Clear
3:53 AM 79.0 °F - 66.0 °F 64% 29.99 in 10.0 mi SSE 4.6 mph - N/A   Mostly Cloudy
4:53 AM 78.1 °F - 66.0 °F 66% 29.97 in 10.0 mi SSE 3.5 mph - N/A   Clear
5:53 AM 78.1 °F - 66.0 °F 66% 29.97 in 10.0 mi SSE 5.8 mph - N/A   Clear
6:53 AM 75.9 °F - 66.9 °F 74% 29.98 in 10.0 mi South 5.8 mph - N/A   Clear
7:53 AM 77.0 °F - 66.9 °F 71% 30.01 in 10.0 mi Calm Calm - N/A   Clear
8:53 AM 81.0 °F 84.1 °F 69.1 °F 67% 30.01 in 10.0 mi South 3.5 mph - N/A   Clear
9:53 AM 86.0 °F 90.7 °F 70.0 °F 59% 30.02 in 10.0 mi South 5.8 mph - N/A   Clear
10:53 AM 89.1 °F 92.9 °F 68.0 °F 50% 30.02 in 10.0 mi South 9.2 mph 16.1 mph N/A   Clear
11:53 AM 91.9 °F 95.4 °F 66.9 °F 44% 30.01 in 10.0 mi SSE 11.5 mph 18.4 mph N/A   Mostly Cloudy
12:53 PM 93.0 °F 95.0 °F 64.9 °F 39% 29.99 in 10.0 mi South 11.5 mph - N/A   Partly Cloudy
1:53 PM 95.0 °F 95.2 °F 61.0 °F 32% 29.96 in 10.0 mi ESE 12.7 mph 20.7 mph N/A   Partly Cloudy
2:53 PM 98.1 °F 98.6 °F 61.0 °F 29% 29.93 in 10.0 mi Variable 6.9 mph - N/A   Mostly Cloudy
3:53 PM 98.1 °F 97.2 °F 57.9 °F 26% 29.90 in 10.0 mi SSE 10.4 mph - N/A   Clear
4:53 PM 96.1 °F 96.4 °F 61.0 °F 31% 29.89 in 10.0 mi SE 12.7 mph 18.4 mph N/A   Partly Cloudy
5:53 PM 95.0 °F 95.2 °F 61.0 °F 32% 29.88 in 10.0 mi SE 11.5 mph - N/A   Clear
6:53 PM 93.0 °F 93.0 °F 61.0 °F 34% 29.88 in 10.0 mi SSE 10.4 mph - N/A   Clear
7:53 PM 88.0 °F 87.9 °F 61.0 °F 40% 29.89 in 10.0 mi ESE 5.8 mph - N/A   Clear
8:53 PM 86.0 °F 86.8 °F 63.0 °F 46% 29.91 in 10.0 mi ESE 5.8 mph - N/A   Clear
9:53 PM 87.1 °F 88.3 °F 64.0 °F 46% 29.92 in 10.0 mi ESE 8.1 mph - N/A   Partly Cloudy
10:53 PM 86.0 °F 88.8 °F 66.9 °F 53% 29.94 in 10.0 mi SSE 15.0 mph - N/A   Clear
11:53 PM 84.0 °F 87.0 °F 68.0 °F 58% 29.94 in 10.0 mi SSE 10.4 mph - N/A   Clear